Lapse_Rate
6.1 5.8 5.6 5.7 5.8 5.8 5.9 5.9 5.8 5.8 5.8 5.9 5.8 6.0 6.1 6.1 6.0 6.1 6.1 6.1 6.2 6.2 6.4 6.5 6.7 6.7 6.8 7.1 7.2 7.1 7.0 7.1 7.1 7.2 7.3 7.4 7.4 7.5 7.7 7.7 7.9 8.0 8.0
6.3 6.2 5.8 5.6 5.7 5.7 6.0 6.0 5.7 6.1 6.1 6.0 6.0 5.8 6.1 6.1 6.1 6.1 6.2 6.2 6.3 6.4 6.3 6.5 6.8 7.0 7.0 7.0 7.1 7.2 7.1 7.2 7.2 7.1 7.2 7.3 7.4 7.5 7.6 7.6 7.9 8.0 7.9
5.6 6.0 6.1 5.6 5.5 5.6 5.8 6.0 5.9 5.9 6.1 6.0 6.1 6.0 5.8 6.1 6.0 6.2 6.2 6.3 6.4 6.5 6.5 6.5 6.7 7.0 7.2 7.2 7.2 7.2 7.2 7.1 7.2 7.3 7.2 7.4 7.3 7.5 7.5 7.8 7.7 7.8 7.3
6.1 5.7 6.0 6.1 5.8 5.6 5.6 5.7 5.8 5.8 6.0 6.2 6.2 6.1 6.0 5.9 6.1 6.3 6.3 6.5 6.5 6.5 6.5 6.6 6.7 6.7 6.8 7.0 7.2 7.2 7.2 7.3 7.3 7.3 7.2 7.2 7.2 7.5 7.8 8.0 8.1 7.7 7.5
6.2 5.9 6.1 6.2 6.0 5.7 5.6 5.5 5.6 5.7 5.8 6.1 6.2 6.2 6.1 6.1 6.0 6.2 6.3 6.3 6.5 6.6 6.6 6.6 6.7 6.8 6.8 6.8 6.9 7.0 7.1 7.2 7.3 7.4 7.4 7.3 7.2 7.4 7.8 7.9 8.0 7.9 7.5
6.2 5.9 6.0 6.0 6.1 5.9 5.8 5.7 5.6 5.8 5.9 5.9 6.1 6.2 6.3 6.4 6.2 6.1 6.2 6.3 6.4 6.6 6.7 6.6 6.7 6.7 6.7 6.6 6.6 6.6 6.7 6.9 7.1 7.3 7.5 7.5 7.5 7.6 7.9 7.9 7.9 8.0 8.0
6.3 5.5 5.3 5.8 6.0 6.1 6.1 5.8 5.9 5.8 5.9 5.9 6.1 6.3 6.5 6.5 6.3 6.2 6.1 6.3 6.4 6.5 6.6 6.7 6.7 6.7 6.6 6.6 6.4 6.4 6.6 6.7 6.9 7.0 7.4 7.2 7.6 7.4 7.8 7.7 7.7 7.9 7.8
6.5 6.2 5.6 5.5 5.6 5.8 5.9 6.0 6.0 5.8 5.8 6.1 6.2 6.4 6.5 6.5 6.3 6.2 6.0 6.2 6.5 6.6 6.6 6.6 6.5 6.5 6.5 6.3 6.2 6.4 6.4 6.4 6.4 6.5 6.8 7.1 7.5 7.4 7.6 7.8 7.7 8.1 7.8
6.6 6.3 6.4 6.2 5.9 5.5 5.8 6.0 6.1 6.1 6.0 6.0 6.3 6.4 6.6 6.7 6.4 6.3 6.1 6.1 6.5 6.7 6.4 6.3 6.4 6.4 6.3 6.1 6.0 6.2 6.3 6.7 6.3 6.4 6.6 7.1 7.4 7.5 7.6 7.9 7.7 8.0 8.2
5.8 5.7 6.6 6.6 6.3 6.0 5.8 5.9 5.9 6.0 6.2 6.2 6.3 6.3 6.6 6.7 6.4 6.2 6.1 6.2 6.3 6.6 6.5 6.3 6.3 6.5 6.2 6.0 6.0 6.3 6.6 6.8 6.2 6.5 6.8 7.2 7.4 7.4 7.6 7.8 8.1 8.2 8.1
5.5 6.3 6.9 7.0 6.3 6.5 5.7 5.8 5.8 5.9 6.3 6.3 6.5 6.6 6.6 6.7 6.6 6.4 6.1 6.2 6.4 6.7 6.6 6.6 6.5 6.4 6.3 6.2 6.1 6.4 6.8 6.6 6.6 6.8 7.0 7.2 7.4 7.6 7.8 8.0 8.1 8.3 8.4
7.4 7.3 5.5 6.6 6.8 6.5 6.4 6.0 6.1 6.2 6.1 6.1 6.4 6.7 6.7 6.7 6.7 6.6 6.4 6.2 6.3 6.5 6.8 6.7 6.7 6.5 6.4 6.4 6.5 6.6 6.8 6.8 6.9 6.9 7.1 7.3 7.5 7.7 7.9 8.2 8.4 8.6 8.8
6.5 6.3 5.9 5.7 6.3 6.8 6.9 6.7 6.5 6.5 6.6 6.4 6.3 6.4 6.9 6.9 6.7 6.7 6.6 6.4 6.4 6.5 6.8 6.9 6.8 6.8 6.8 6.8 6.9 6.9 7.0 6.9 6.9 7.0 7.2 7.5 7.6 7.9 8.2 8.6 8.8 8.9 8.9
7.1 7.1 6.5 6.8 6.9 7.2 7.0 6.7 6.8 6.9 6.9 6.9 6.7 6.7 6.5 6.5 6.8 6.8 6.7 6.6 6.5 6.5 6.7 6.9 6.9 6.9 7.0 7.0 7.0 7.1 7.2 7.1 7.0 7.2 7.4 7.7 7.9 8.1 8.4 8.7 8.8 8.8 8.8
7.1 7.3 7.2 6.8 7.1 7.4 7.3 6.8 6.6 7.1 7.0 7.1 7.1 6.9 6.8 6.7 6.7 6.6 6.5 6.4 6.4 6.4 6.3 6.5 6.6 6.9 7.2 7.3 7.4 7.4 7.5 7.4 7.4 7.4 7.6 7.9 8.0 8.3 8.4 8.5 8.7 8.7 8.7
7.4 7.6 7.2 6.8 7.1 7.2 7.5 7.4 6.9 6.9 7.0 7.0 7.1 7.0 7.0 6.9 6.7 6.6 6.4 6.5 6.5 6.3 6.0 6.5 6.9 7.2 7.4 7.4 7.5 7.6 7.5 7.5 7.6 7.6 7.6 7.9 8.2 8.3 8.3 8.3 8.4 8.5 8.6
7.0 7.4 6.9 7.0 7.0 6.6 7.2 7.7 7.4 7.1 7.1 7.2 7.1 7.2 7.2 7.1 6.9 6.7 6.5 6.3 6.4 6.2 6.3 6.7 7.0 7.3 7.5 7.4 7.3 7.4 7.5 7.6 7.7 7.8 7.9 8.0 8.2 8.1 8.1 8.3 8.4 8.4 8.4
7.0 7.5 7.1 7.0 6.9 6.9 6.8 7.1 7.6 7.4 7.2 7.3 7.3 7.2 7.4 7.2 7.1 6.9 6.8 6.6 6.5 6.5 6.7 7.1 7.2 7.2 6.9 6.8 7.0 7.2 7.4 7.7 7.9 7.9 7.9 8.0 8.0 8.2 8.3 8.5 8.4 8.5 8.3
7.0 7.0 7.4 7.1 6.9 7.3 7.4 7.5 7.7 7.4 7.4 7.5 7.2 7.6 7.3 7.2 7.3 7.0 6.9 6.9 6.6 6.6 6.7 6.8 6.6 6.7 6.8 6.9 7.1 7.3 7.5 7.6 7.9 8.0 8.0 8.1 8.3 8.3 8.4 8.5 8.0 7.0 7.5
6.7 7.0 6.9 7.2 7.0 7.0 7.3 7.6 7.6 7.4 7.4 7.3 7.6 7.4 7.1 7.3 7.2 7.0 7.0 7.0 6.8 6.8 6.7 6.4 6.4 6.7 7.0 7.3 7.1 7.2 7.5 7.9 8.2 8.3 8.3 8.2 8.2 8.3 8.3 7.5 7.4 7.4 7.3
6.4 6.5 6.3 6.4 6.6 6.8 7.2 7.5 7.4 7.0 7.1 7.7 7.7 7.9 7.2 7.0 7.2 6.9 6.9 6.8 7.0 6.9 6.6 6.6 6.7 6.7 6.8 7.0 7.0 7.3 7.5 7.9 8.2 8.2 8.2 8.3 8.2 7.6 7.4 7.9 7.6 7.5 7.4
6.5 6.6 6.6 6.1 6.0 6.1 6.7 7.1 7.4 7.4 7.6 7.9 7.7 7.0 6.8 6.7 7.2 6.9 6.5 6.7 7.0 6.1 6.9 6.7 6.8 7.0 7.1 7.3 7.2 7.2 7.4 7.8 8.0 7.9 7.8 7.6 8.1 7.7 7.6 7.7 7.6 7.6 7.5
6.1 6.2 6.4 6.2 5.6 5.8 5.9 6.3 6.7 7.0 6.6 6.3 6.1 6.3 6.1 5.9 6.2 6.8 6.7 7.1 6.7 6.6 6.7 7.1 6.7 6.9 6.9 7.1 7.3 7.4 7.8 7.8 8.0 7.5 7.7 7.5 7.6 7.7 7.4 7.4 7.4 7.5 7.4
5.6 5.7 5.7 5.8 5.7 5.7 6.0 5.9 5.8 5.8 5.8 6.0 5.5 5.3 5.6 5.6 5.8 6.3 6.4 6.6 6.2 6.1 6.3 6.5 6.3 6.5 6.9 6.6 6.7 6.9 7.1 7.2 7.4 8.0 7.9 8.0 7.7 7.3 6.9 7.2 7.1 7.4 7.2
5.4 4.9 5.0 5.1 5.5 5.8 5.8 5.7 5.7 5.5 5.6 5.5 5.4 5.7 5.8 5.7 5.7 5.6 5.5 5.5 5.6 5.7 5.8 5.7 5.9 5.9 6.2 6.4 6.6 6.8 6.0 7.0 6.8 7.2 7.5 7.2 7.1 7.3 7.2 7.4 7.0 7.4 7.3
5.1 4.7 4.7 4.8 4.8 5.0 5.3 5.3 5.3 5.6 5.5 5.5 5.6 5.7 5.1 5.8 5.4 5.9 6.1 5.8 5.4 5.0 4.6 5.1 5.4 5.0 5.9 5.2 6.2 6.0 6.4 6.3 6.3 6.6 7.1 6.9 6.8 6.9 7.0 7.0 7.1 7.3 7.3
Wind_Speed
18 17 15 13 8 7 8 8 7 6 7 7 9 9 9 7 7 6 6 6 6 5 4 4 5 4 3 2 2 1 1 2 2 4 3 2 3 6 10 13 17 16 17
18 17 16 15 14 8 8 8 7 7 6 10 8 11 10 8 7 7 7 6 7 6 7 5 6 3 5 4 2 4 2 2 2 4 2 3 4 5 5 6 8 12 12
15 16 15 15 15 15 11 7 6 7 8 7 7 10 10 9 8 7 7 7 7 7 6 6 7 6 6 4 4 4 3 2 3 3 4 2 3 2 4 3 3 5 13
15 16 16 16 16 16 15 10 8 7 7 8 7 9 9 9 9 9 7 7 7 7 7 6 7 7 7 7 6 6 4 4 3 3 3 4 3 3 1 2 4 2 5
16 16 18 17 16 15 16 14 11 9 10 8 10 8 9 9 9 8 8 8 7 7 7 7 7 8 10 9 5 6 5 4 4 4 5 3 3 3 3 2 3 3 4
17 18 16 16 15 15 15 16 14 14 10 9 10 10 11 9 12 14 10 7 8 8 8 7 7 8 10 12 12 11 8 6 6 3 3 5 8 3 3 2 2 2 3
4 14 15 14 15 16 15 16 16 17 15 13 12 13 11 12 14 15 15 8 8 9 10 8 7 8 9 7 9 11 12 14 14 10 7 8 5 5 3 3 3 3 3
4 3 7 13 17 16 16 16 17 15 16 14 14 13 14 12 14 16 15 11 10 10 11 11 11 11 8 8 7 8 8 8 8 7 10 13 9 8 6 7 4 4 3
2 2 7 11 16 16 17 18 17 15 14 15 14 15 13 13 15 17 12 10 11 11 10 10 11 12 11 13 8 10 10 11 11 17 20 21 22 22 16 1 5 3 3
8 10 7 10 16 18 19 18 17 15 15 13 15 15 16 16 15 18 16 10 10 9 9 10 14 15 14 13 11 10 11 15 7 6 5 7 15 14 20 9 5 6 3
10 12 7 11 20 19 19 17 16 16 14 14 14 14 15 14 16 18 19 13 11 10 10 10 10 16 18 15 17 11 12 12 11 6 5 5 5 5 5 6 8 6 4
11 8 6 20 15 16 18 16 16 15 15 14 13 11 11 14 15 16 19 20 17 13 11 10 11 14 16 16 11 16 16 9 3 5 5 7 7 7 6 5 9 11 14
11 10 7 12 14 14 15 16 13 14 13 13 11 11 11 10 10 18 20 21 21 14 13 13 13 13 14 12 16 15 7 4 6 6 9 10 9 7 4 2 0 3 4
11 11 9 10 8 9 10 12 12 12 12 11 11 11 10 10 10 10 9 9 17 13 16 11 10 9 10 9 6 5 5 5 6 7 7 6 3 3 4 4 4 3 3
10 9 10 7 8 5 10 12 13 15 15 13 12 11 11 11 12 12 12 9 10 13 11 7 5 4 6 6 5 6 5 5 6 6 5 6 5 4 6 4 3 3 4
11 8 7 8 7 7 5 5 4 5 14 14 15 13 11 14 13 15 16 16 17 11 4 8 8 9 10 10 9 9 7 9 9 8 7 7 7 6 6 3 3 5 6
10 9 7 7 6 6 6 6 7 1 2 9 14 16 16 12 14 12 16 17 5 10 8 7 9 8 9 9 9 8 9 8 8 8 8 8 7 6 4 4 5 5 5
8 12 6 6 6 5 6 6 6 4 6 5 7 9 11 12 10 14 8 10 2 4 7 8 9 9 8 8 7 7 7 5 6 7 7 7 7 6 4 5 6 7 6
7 5 6 6 6 6 4 5 5 7 6 5 3 1 4 8 8 6 12 4 6 6 8 9 7 7 7 7 7 7 7 7 7 6 6 5 6 4 6 6 5 7 4
7 12 9 5 5 4 4 5 6 5 5 5 5 4 4 3 4 4 2 1 3 1 3 4 3 2 2 2 3 4 5 5 5 5 6 6 6 6 6 6 4 4 5
4 5 10 4 4 4 3 5 6 6 3 7 7 3 8 5 6 4 4 6 6 6 5 5 4 3 3 3 3 3 4 2 3 4 4 6 5 4 5 4 4 4 5
4 4 4 5 5 5 5 6 8 7 8 8 8 11 14 9 7 5 4 8 10 6 5 5 5 5 5 5 5 3 5 4 4 5 7 5 3 4 4 3 3 4 4
5 5 4 5 6 7 6 8 10 8 7 8 7 8 10 9 9 8 8 8 11 8 7 6 6 6 5 5 6 5 5 3 4 1 4 6 6 4 3 4 4 4 4
7 6 4 6 7 6 7 8 8 9 8 8 8 8 8 9 10 9 8 8 9 8 5 6 6 9 8 7 8 8 9 8 9 1 4 2 4 7 5 3 4 6 5
5 6 6 7 7 7 7 8 8 8 8 8 8 6 7 5 8 8 6 7 7 9 9 8 10 11 14 15 15 14 11 14 7 3 4 4 3 4 5 5 5 5 5
5 6 6 8 8 8 8 8 8 8 8 7 7 6 7 7 7 9 7 6 9 10 11 8 11 16 22 14 20 20 20 20 17 18 11 6 5 5 4 4 8 6 7
Wind_Direction
189 193 198 202 206 201 202 206 204 206 203 198 192 193 189 191 187 185 197 200 208 229 235 228 260 262 253 255 299 303 149 152 206 298 262 285 292 307 317 322 312 304 311
193 190 196 198 208 204 210 206 194 197 203 203 189 196 191 194 191 191 202 201 200 215 231 223 247 263 278 242 217 257 261 199 184 270 277 293 273 298 292 304 323 334 351
204 196 193 199 201 211 213 212 214 200 205 199 182 193 194 193 191 200 200 203 204 214 221 219 231 230 255 259 249 254 235 233 202 223 271 267 281 312 327 317 295 316 327
201 204 198 196 202 206 212 202 206 213 199 208 199 198 200 203 200 202 203 206 211 216 223 223 227 219 226 235 241 246 256 266 259 261 281 284 256 308 304 272 311 301 320
201 203 205 201 198 201 206 211 209 209 216 191 201 201 200 201 208 202 203 211 209 221 224 225 230 227 221 221 220 242 234 242 251 257 271 267 274 296 281 279 272 289 294
196 208 209 198 197 198 202 207 208 213 216 206 197 199 201 209 203 201 195 201 218 222 229 234 233 234 241 241 243 241 222 229 249 224 242 258 279 244 248 257 269 310 321
190 217 207 210 203 201 197 201 207 214 218 220 216 210 206 210 203 204 203 211 210 222 229 231 233 239 227 234 238 239 239 234 242 247 245 254 256 254 227 269 254 239 243
13 303 269 217 208 206 201 202 208 208 212 214 216 219 220 220 203 209 209 218 221 223 223 224 229 239 225 218 231 246 253 245 232 224 228 257 249 257 211 260 241 249 276
313 306 324 246 220 202 203 206 207 206 209 213 214 212 212 221 203 208 201 220 229 230 228 226 223 236 235 213 227 248 260 265 255 249 239 239 249 255 252 305 276 255 280
323 300 289 328 229 209 206 205 206 207 210 209 215 216 215 221 206 206 199 218 227 235 236 239 225 231 224 206 219 237 253 260 257 267 262 256 254 260 262 216 238 244 230
306 301 309 312 276 216 210 204 203 207 210 210 214 214 215 212 219 203 199 211 225 227 233 240 238 221 229 218 214 226 232 257 261 242 248 249 251 246 245 212 210 212 209
304 305 264 264 271 216 210 205 204 205 208 212 214 215 218 220 213 206 202 205 217 226 230 233 241 221 221 220 215 237 244 252 267 257 254 257 250 244 243 223 220 217 221
296 281 274 285 263 218 208 202 200 202 205 208 210 217 222 218 220 213 204 207 219 224 233 233 227 220 219 227 228 238 224 206 231 241 248 252 245 247 245 219 310 178 170
314 308 312 308 287 209 204 202 199 200 205 207 210 217 221 223 223 222 212 216 226 222 242 242 238 214 202 212 217 218 203 197 201 221 234 246 245 215 227 199 184 175 163
315 322 335 322 343 299 212 201 200 203 200 202 207 210 212 221 223 216 215 209 215 220 221 235 229 207 227 231 229 224 212 202 211 219 220 232 230 228 242 189 184 154 193
329 337 327 325 345 338 296 233 62 230 204 206 199 203 218 224 205 203 214 211 207 165 174 219 223 230 234 237 236 240 225 219 228 221 213 214 222 220 231 191 177 196 210
321 320 318 307 320 323 330 321 218 248 120 218 220 216 217 213 210 214 219 220 193 142 216 210 223 219 226 227 226 225 234 228 215 212 211 212 215 218 198 199 205 211 228
306 299 306 309 304 313 297 302 292 241 203 205 219 228 236 233 231 226 128 119 129 216 220 223 220 219 217 219 225 225 233 229 207 213 213 215 210 207 192 216 204 204 213
306 297 298 295 285 274 306 322 311 284 225 205 142 99 108 130 128 136 155 204 216 208 209 221 217 212 218 223 225 226 225 228 220 204 204 196 212 201 226 222 203 201 176
293 298 291 276 289 306 349 350 341 321 275 212 190 182 131 135 166 177 191 316 265 202 207 215 201 214 249 305 285 252 225 212 211 208 207 200 208 200 217 215 185 175 206
307 323 345 2 322 357 35 30 6 4 356 62 37 56 144 133 120 115 84 72 49 43 27 43 45 59 73 93 68 18 350 334 326 293 252 219 196 195 209 187 189 196 217
333 332 1 5 353 11 4 51 32 19 21 44 54 44 50 64 58 52 69 94 88 20 34 47 54 51 33 20 18 76 98 65 29 17 335 312 220 176 174 182 195 219 209
8 11 343 34 15 5 24 39 42 11 27 28 46 66 60 57 62 52 50 36 61 57 27 33 39 39 29 38 30 360 16 39 126 170 11 348 336 304 198 206 203 213 217
26 31 22 49 35 24 29 44 55 22 21 43 34 35 82 85 77 63 55 61 52 60 41 36 33 35 27 20 13 30 16 340 292 52 107 31 12 353 303 269 247 221 219
28 44 40 58 50 38 35 48 44 50 36 29 53 31 29 45 93 77 87 103 97 69 46 39 21 31 32 29 18 16 349 348 2 11 72 23 53 1 355 332 314 287 249
45 60 63 61 54 52 44 51 42 46 48 41 44 40 68 41 49 63 61 77 66 67 66 44 48 41 43 0 12 347 12 5 2 33 54 52 36 52 20 333 354 338 323